Regional Weather Roundup
Issued by NWS

Home | Current Version | Previous Version | Text Only | Print | Product List | Glossary Off
Versions: 1 2 3 4 5 6 7 8 9 10 11 12 13 14 15 16 17 18 19 20 21 22 23 24 25 26 27 28 29 30 31 32 33 34 35 36 37 38 39 40 41 42 43 44 45 46 47 48 49 50

000
ASUS43 KFSD 021810
RWRSD

WEATHER ROUNDUP FOR SOUTH DAKOTA
NATIONAL WEATHER SERVICE SIOUX FALLS SD
100 PM CDT TUE SEP 02 2014

NOTE: "FAIR" INDICATES FEW OR NO CLOUDS BELOW 12,000 FEET WITH NO
SIGNIFICANT WEATHER AND/OR OBSTRUCTIONS TO VISIBILITY.


SDZ001>005-009-010-012>017-021900-
NORTHWEST AND NORTH CENTRAL SOUTH DAKOTA

CITY           SKY/WX    TMP DP  RH WIND       PRES   REMARKS
BUFFALO          N/A     74  47  38 NW15      29.81F
FAITH            N/A     76  51  41 S16       29.87F
MOBRIDGE       SUNNY     77  50  38 SW12      29.83F
$$

SDZ012>016-024>037-041>051-057-063-072>074-021900-
SOUTHWEST AND SOUTH CENTRAL SOUTH DAKOTA

CITY           SKY/WX    TMP DP  RH WIND       PRES   REMARKS
RAPID CTY ARPT SUNNY     77  48  35 S10       29.91F
PIERRE         SUNNY     76  50  40 W8        29.88F
CUSTER         SUNNY     71  33  24 W12       30.03F
ELLSWORTH AFB  SUNNY     78  49  36 VRB5      29.90F
PHILIP         SUNNY     79  48  33 SW16      29.89F
PINE RIDGE       N/A    N/A N/A N/A MISG      29.94F
WINNER         FAIR      77  52  41 SW9       29.94F
$$

SDZ004>011-016>023-039-040-021900-
NORTHEAST SOUTH DAKOTA

CITY           SKY/WX    TMP DP  RH WIND       PRES   REMARKS
ABERDEEN       SUNNY     74  58  57 S10       29.86F
WATERTOWN      SUNNY     74  53  48 SW17G23   29.91F
SISSETON         N/A     76  52  43 W13       29.85S
$$

SDZ017-020-022-023-036>040-048>070-021900-
SOUTHEAST SOUTH DAKOTA

CITY           SKY/WX    TMP DP  RH WIND       PRES   REMARKS
SIOUX FALLS    MOSUNNY   72  57  59 VRB6      29.96S
HURON          SUNNY     76  50  40 W12G17    29.91F
CHAMBERLAIN    SUNNY     75  50  41 S10       29.92F
MITCHELL         N/A    N/A N/A N/A MISG      29.94F
YANKTON        SUNNY     73  61  64 S6        29.96S
$$

ABBREVIATIONS USED IN REMARKS
   TC - TEMPERATURE IN CELSIUS
  WCI - WIND CHILL INDEX
   HX - HEAT INDEX
  VSB - VISIBILITY




USA.gov is the U.S. government's official web portal to all federal, state and local government web resources and services.